SYN002 KCLE-KCMH

Flight info

Callsign SYN002
Flight time 0h 24m
Altitude 14000
Route LBRON WAAHU BUGZZ CBUSS2
Aircraft BCS3/M-SBDE2E3GIRWXY/LB1

Departure

Time 2026-05-09 00:39
Airport Cleveland Hopkins International Airport (KCLE)

Arrival

Time 2026-05-09 01:04
Airport John Glenn Columbus International Airport (KCMH)
Time Latitude Longitude Altitude Speed Heading
2026-05-09 00:13 41.40924 -81.84069 797 ft 0 kts 140°
2026-05-09 00:28 41.40935 -81.84086 797 ft 3 kts 113°
2026-05-09 00:28 41.40939 -81.84111 797 ft 3 kts 82°
2026-05-09 00:28 41.40934 -81.84133 797 ft 0 kts 51°
2026-05-09 00:29 41.40935 -81.84132 797 ft 0 kts 51°
2026-05-09 00:29 41.40937 -81.84129 797 ft 0 kts 51°
2026-05-09 00:30 41.40938 -81.84127 797 ft 0 kts 51°
2026-05-09 00:30 41.40942 -81.84125 797 ft 0 kts 22°
2026-05-09 00:31 41.40973 -81.84118 797 ft 8 kts
2026-05-09 00:31 41.41029 -81.84179 796 ft 9 kts 295°
2026-05-09 00:31 41.41043 -81.84219 796 ft 0 kts 294°
2026-05-09 00:32 41.41044 -81.84220 796 ft 1 kts 294°
2026-05-09 00:32 41.41053 -81.84255 796 ft 8 kts 285°
2026-05-09 00:32 41.41066 -81.84344 797 ft 7 kts 289°
2026-05-09 00:33 41.41089 -81.84371 797 ft 7 kts 340°
2026-05-09 00:33 41.41169 -81.84384 795 ft 17 kts 359°
2026-05-09 00:33 41.41290 -81.84342 794 ft 19 kts 26°
2026-05-09 00:33 41.41380 -81.84215 794 ft 19 kts 45°
2026-05-09 00:34 41.41391 -81.84200 794 ft 0 kts 47°
2026-05-09 00:34 41.41397 -81.84192 794 ft 2 kts 47°
2026-05-09 00:34 41.41408 -81.84176 794 ft 3 kts 46°
2026-05-09 00:35 41.41424 -81.84158 795 ft 3 kts 32°
2026-05-09 00:35 41.41447 -81.84148 795 ft 1 kts
2026-05-09 00:35 41.41448 -81.84148 795 ft 0 kts
2026-05-09 00:37 41.41450 -81.84148 795 ft 0 kts 355°
2026-05-09 00:37 41.41455 -81.84151 795 ft 2 kts 341°
2026-05-09 00:37 41.41482 -81.84171 795 ft 7 kts 323°
2026-05-09 00:37 41.41501 -81.84244 794 ft 10 kts 255°
2026-05-09 00:38 41.41472 -81.84307 793 ft 0 kts 229°
2026-05-09 00:38 41.41456 -81.84331 792 ft 17 kts 230°
2026-05-09 00:39 41.41211 -81.84720 795 ft 92 kts 230°
2026-05-09 00:39 41.40655 -81.85592 961 ft 142 kts 228°
2026-05-09 00:39 41.39900 -81.86462 1781 ft 147 kts 205°
2026-05-09 00:39 41.38939 -81.86896 2765 ft 145 kts 201°
2026-05-09 00:40 41.37961 -81.87225 3583 ft 153 kts 201°
2026-05-09 00:40 41.36852 -81.87551 4271 ft 171 kts 200°
2026-05-09 00:40 41.35617 -81.87894 5036 ft 187 kts 200°
2026-05-09 00:41 41.32972 -81.89024 6403 ft 217 kts 211°
2026-05-09 00:41 41.31530 -81.89898 7111 ft 237 kts 210°
2026-05-09 00:41 41.29962 -81.90810 7873 ft 255 kts 209°
2026-05-09 00:41 41.28295 -81.91740 8837 ft 263 kts 208°
2026-05-09 00:42 41.26592 -81.92679 9822 ft 268 kts 208°
2026-05-09 00:42 41.24843 -81.93642 10519 ft 278 kts 208°
2026-05-09 00:42 41.23001 -81.94658 11000 ft 295 kts 207°
2026-05-09 00:42 41.21057 -81.95727 11503 ft 307 kts 207°
2026-05-09 00:43 41.19074 -81.96813 12287 ft 311 kts 207°
2026-05-09 00:43 41.17066 -81.97910 13054 ft 314 kts 208°
2026-05-09 00:43 41.15030 -81.99024 13769 ft 320 kts 208°
2026-05-09 00:43 41.12937 -82.00172 14009 ft 331 kts 208°
2026-05-09 00:44 41.10819 -82.01328 14045 ft 325 kts 208°
2026-05-09 00:44 41.08752 -82.02454 14042 ft 321 kts 208°
2026-05-09 00:44 41.06675 -82.03588 14036 ft 323 kts 208°
2026-05-09 00:44 41.04604 -82.04718 14034 ft 322 kts 208°
2026-05-09 00:45 41.02532 -82.05849 14035 ft 322 kts 208°
2026-05-09 00:45 41.00462 -82.06977 14038 ft 322 kts 208°
2026-05-09 00:45 40.98389 -82.08107 14040 ft 322 kts 208°
2026-05-09 00:45 40.96325 -82.09255 14035 ft 319 kts 212°
2026-05-09 00:46 40.94479 -82.10817 14044 ft 315 kts 221°
2026-05-09 00:46 40.92728 -82.12553 14039 ft 313 kts 223°
2026-05-09 00:46 40.90997 -82.14300 14044 ft 313 kts 223°
2026-05-09 00:46 40.89264 -82.16049 14042 ft 313 kts 223°
2026-05-09 00:47 40.87557 -82.17770 14041 ft 313 kts 223°
2026-05-09 00:47 40.85823 -82.19518 14043 ft 313 kts 223°
2026-05-09 00:47 40.84093 -82.21260 14035 ft 313 kts 223°
2026-05-09 00:47 40.82361 -82.23002 14031 ft 313 kts 223°
2026-05-09 00:48 40.80630 -82.24742 14034 ft 313 kts 223°
2026-05-09 00:48 40.78896 -82.26483 14032 ft 313 kts 223°
2026-05-09 00:48 40.77160 -82.28224 14033 ft 313 kts 223°
2026-05-09 00:48 40.75429 -82.29961 14037 ft 312 kts 223°
2026-05-09 00:49 40.73744 -82.31642 14027 ft 294 kts 223°
2026-05-09 00:49 40.72149 -82.33233 14026 ft 284 kts 223°
2026-05-09 00:49 40.70576 -82.34808 14030 ft 286 kts 223°
2026-05-09 00:49 40.68993 -82.36394 14036 ft 285 kts 223°
2026-05-09 00:50 40.67421 -82.37966 14034 ft 284 kts 223°
2026-05-09 00:50 40.65845 -82.39542 14036 ft 285 kts 223°
2026-05-09 00:50 40.64267 -82.41118 14025 ft 284 kts 223°
2026-05-09 00:50 40.62512 -82.42385 14039 ft 292 kts 210°
2026-05-09 00:51 40.60611 -82.43378 14041 ft 295 kts 207°
2026-05-09 00:51 40.58691 -82.44332 14027 ft 295 kts 207°
2026-05-09 00:51 40.56774 -82.45273 14038 ft 295 kts 206°
2026-05-09 00:51 40.54804 -82.46052 14041 ft 298 kts 202°
2026-05-09 00:52 40.52801 -82.46774 14035 ft 298 kts 202°
2026-05-09 00:52 40.50794 -82.47492 14039 ft 299 kts 202°
2026-05-09 00:52 40.48777 -82.48216 13772 ft 304 kts 202°
2026-05-09 00:52 40.46736 -82.48950 13263 ft 303 kts 202°
2026-05-09 00:53 40.44693 -82.49683 12714 ft 304 kts 201°
2026-05-09 00:53 40.42670 -82.50408 12322 ft 299 kts 201°
2026-05-09 00:53 40.40685 -82.51119 11945 ft 293 kts 201°
2026-05-09 00:53 40.38733 -82.51818 11570 ft 288 kts 201°
2026-05-09 00:54 40.36813 -82.52506 11183 ft 283 kts 201°
2026-05-09 00:54 40.34929 -82.53182 10806 ft 279 kts 201°
2026-05-09 00:54 40.33068 -82.53850 10441 ft 275 kts 201°
2026-05-09 00:54 40.31237 -82.54506 10073 ft 271 kts 201°
2026-05-09 00:55 40.29426 -82.55151 9708 ft 268 kts 201°
2026-05-09 00:55 40.27638 -82.55787 9338 ft 264 kts 201°
2026-05-09 00:55 40.25865 -82.56421 8987 ft 265 kts 201°
2026-05-09 00:55 40.24087 -82.57055 8632 ft 264 kts 200°
2026-05-09 00:56 40.22331 -82.57678 8290 ft 259 kts 200°
2026-05-09 00:56 40.20599 -82.58293 7951 ft 258 kts 200°
2026-05-09 00:56 40.18879 -82.58905 7606 ft 254 kts 200°
2026-05-09 00:56 40.17188 -82.59504 7277 ft 249 kts 200°
2026-05-09 00:57 40.15536 -82.60089 6954 ft 244 kts 200°
2026-05-09 00:57 40.13911 -82.60665 6635 ft 240 kts 200°
2026-05-09 00:57 40.12322 -82.61261 6318 ft 235 kts 202°
2026-05-09 00:57 40.10776 -82.61899 5992 ft 231 kts 202°
2026-05-09 00:58 40.09287 -82.62515 5688 ft 219 kts 202°
2026-05-09 00:58 40.07875 -82.63100 5403 ft 207 kts 202°
2026-05-09 00:58 40.06566 -82.63639 5159 ft 193 kts 202°
2026-05-09 00:58 40.05303 -82.64160 4958 ft 189 kts 202°
2026-05-09 00:59 40.04031 -82.64683 4629 ft 193 kts 202°
2026-05-09 00:59 40.02734 -82.65214 4292 ft 197 kts 201°
2026-05-09 00:59 40.01508 -82.65947 4033 ft 192 kts 224°
2026-05-09 00:59 40.00869 -82.67385 3983 ft 181 kts 250°
2026-05-09 01:00 40.00464 -82.68948 3833 ft 185 kts 251°
2026-05-09 01:00 40.00048 -82.70566 3480 ft 190 kts 251°
2026-05-09 01:00 39.99674 -82.72215 3146 ft 192 kts 259°
2026-05-09 01:00 39.99486 -82.73927 2886 ft 185 kts 262°
2026-05-09 01:01 39.99441 -82.75584 2648 ft 180 kts 271°
2026-05-09 01:01 39.99540 -82.77152 2420 ft 171 kts 274°
2026-05-09 01:01 39.99642 -82.78662 2207 ft 159 kts 273°
2026-05-09 01:01 39.99718 -82.80060 1992 ft 148 kts 273°
2026-05-09 01:02 39.99788 -82.81330 1810 ft 139 kts 273°
2026-05-09 01:02 39.99859 -82.82581 1632 ft 138 kts 273°
2026-05-09 01:02 39.99928 -82.83808 1449 ft 135 kts 274°
2026-05-09 01:02 39.99998 -82.85027 1278 ft 135 kts 274°
2026-05-09 01:03 40.00065 -82.86246 1101 ft 135 kts 274°
2026-05-09 01:03 40.00141 -82.87459 922 ft 134 kts 273°
2026-05-09 01:03 40.00198 -82.88618 826 ft 107 kts 274°
2026-05-09 01:03 40.00241 -82.89375 822 ft 66 kts 274°
2026-05-09 01:04 40.00264 -82.89902 826 ft 51 kts 273°
2026-05-09 01:04 40.00289 -82.90316 831 ft 23 kts 265°
2026-05-09 01:04 40.00239 -82.90401 830 ft 1 kts 221°
2026-05-09 01:04 40.00224 -82.90418 829 ft 5 kts 221°
2026-05-09 01:05 40.00221 -82.90422 831 ft 0 kts 221°
2026-05-09 01:05 40.00220 -82.90422 831 ft 0 kts 221°
2026-05-09 01:06 40.00220 -82.90423 831 ft 0 kts 221°
2026-05-09 01:06 40.00218 -82.90423 831 ft 1 kts 207°
2026-05-09 01:06 40.00211 -82.90424 831 ft 0 kts 174°
2026-05-09 01:07 40.00207 -82.90421 831 ft 0 kts 150°
2026-05-09 01:07 40.00205 -82.90417 831 ft 1 kts 129°
2026-05-09 01:07 40.00205 -82.90406 831 ft 4 kts 95°
2026-05-09 01:07 40.00200 -82.90327 830 ft 14 kts 94°
2026-05-09 01:08 40.00187 -82.90147 824 ft 25 kts 95°
2026-05-09 01:08 40.00173 -82.89881 823 ft 33 kts 95°
2026-05-09 01:08 40.00157 -82.89551 821 ft 39 kts 94°
2026-05-09 01:08 40.00135 -82.89192 823 ft 40 kts 94°
2026-05-09 01:09 40.00113 -82.88828 825 ft 41 kts 94°
2026-05-09 01:09 40.00073 -82.88662 826 ft 8 kts 166°
2026-05-09 01:09 40.00042 -82.88640 826 ft 5 kts 146°
2026-05-09 01:09 40.00006 -82.88603 825 ft 5 kts 152°
2026-05-09 01:10 39.99986 -82.88604 824 ft 3 kts 191°
2026-05-09 01:10 39.99977 -82.88606 824 ft 0 kts 193°
2026-05-09 01:10 39.99976 -82.88606 824 ft 0 kts 193°
2026-05-09 01:10 39.99976 -82.88607 824 ft 0 kts 193°
2026-05-09 01:11 39.99974 -82.88607 824 ft 0 kts 193°